Weather History for Lumberton, NC

Change the Weather History Date:

Wednesday, September 19, 2012

  Actual Average Record
Temperature  
Mean Temperature 69 °F 72 °F  
Max Temperature 72 °F 83 °F 90 °F (2010)
Min Temperature 65 °F 61 °F 52 °F (2001)
Degree Days  
Heating Degree Days 0 0  
Month to date heating degree days 0 0  
Since 1 July heating degree days 0 0  
Cooling Degree Days 4 7  
Month to date cooling degree days 218 182  
Year to date cooling degree days 1942 1754  
Growing Degree Days 18 (Base 50)    
Moisture  
Dew Point 64 °F    
Average Humidity 83    
Maximum Humidity 100    
Minimum Humidity 66    
Precipitation  
Precipitation 0.00 in 0.15 in 0.01 in (2000)
Month to date precipitation 1.57 3.10  
Year to date precipitation 37.71 33.49  
Sea Level Pressure  
Sea Level Pressure 29.96 in    
Wind  
Wind Speed 8 mph (NNE)    
Max Wind Speed 18 mph    
Max Gust Speed 24 mph    
Visibility 10 miles    
Events      
T = Trace of Precipitation, MM = Missing Value Source: NWS Daily Summary

Daily Weather History Graph

Daily Weather History Graph

Search for Another Location

Airport:

Trip Planner

Search our weather history database for the weather conditions in past years. The results will help you decide how hot, cold, wet, or windy it might be!

Date:

Astronomy

Sep. 19, 2012 Rise Set
Actual Time 7:02 AM EDT 7:16 PM EDT
Civil Twilight 6:37 AM EDT 7:41 PM EDT
Nautical Twilight 6:07 AM EDT 8:11 PM EDT
Astronomical Twilight 5:37 AM EDT 8:40 PM EDT
Moon 10:57 AM EDT (9/19) 9:37 PM EDT (9/19)
Length of Visible Light 13h 04m
Length of Day
12h 14m
Waxing Crescent, 17% of the Moon is Illuminated
Sep 19
Waxing Crescent
Sep 22
First Quarter
Sep 29
Full
Oct 8
Last Quarter
Oct 15
New

Hourly Weather History & Observations

Time (EDT) Temp. Dew Point Humidity Pressure Visibility Wind Dir Wind Speed Gust Speed Precip Events Conditions
12:54 AM 70.0 °F 69.1 °F 97% 29.85 in 10.0 mi Calm Calm - N/A   Scattered Clouds
1:54 AM 71.1 °F 70.0 °F 96% 29.85 in 10.0 mi SSW 3.5 mph - N/A   Overcast
2:54 AM 71.1 °F 70.0 °F 96% 29.85 in 9.0 mi Calm Calm - N/A   Mostly Cloudy
3:06 AM 71.6 °F 69.8 °F 94% 29.85 in 8.0 mi Calm Calm - N/A   Mostly Cloudy
3:46 AM 71.6 °F 69.8 °F 94% 29.85 in 8.0 mi NW 4.6 mph - N/A   Overcast
3:54 AM 71.1 °F 70.0 °F 96% 29.85 in 8.0 mi Calm Calm - N/A   Overcast
4:03 AM 71.6 °F 69.8 °F 94% 29.85 in 8.0 mi Calm Calm - N/A   Overcast
4:10 AM 71.6 °F 69.8 °F 94% 29.85 in 8.0 mi Calm Calm - N/A   Overcast
4:17 AM 71.6 °F 69.8 °F 94% 29.86 in 8.0 mi Calm Calm - N/A   Overcast
4:37 AM 71.6 °F 69.8 °F 94% 29.86 in 8.0 mi North 3.5 mph - N/A   Overcast
4:52 AM 71.6 °F 69.8 °F 94% 29.87 in 8.0 mi North 3.5 mph - N/A   Overcast
4:53 AM 71.1 °F 70.0 °F 96% 29.87 in 8.0 mi North 3.5 mph - N/A   Overcast
5:07 AM 71.6 °F 69.8 °F 94% 29.87 in 9.0 mi Calm Calm - N/A   Overcast
5:54 AM 70.0 °F 69.1 °F 97% 29.89 in 10.0 mi NNW 5.8 mph - N/A   Overcast
6:45 AM 69.8 °F 68.0 °F 94% 29.91 in 10.0 mi North 8.1 mph - N/A   Mostly Cloudy
6:54 AM 70.0 °F 68.0 °F 93% 29.91 in 10.0 mi North 8.1 mph - N/A   Overcast
7:23 AM 69.8 °F 68.0 °F 94% 29.92 in 10.0 mi North 6.9 mph - N/A   Overcast
7:54 AM 68.0 °F 66.0 °F 93% 29.94 in 10.0 mi North 9.2 mph - N/A   Overcast
8:54 AM 69.1 °F 64.9 °F 87% 29.96 in 10.0 mi North 8.1 mph - N/A   Overcast
9:15 AM 69.8 °F 64.4 °F 83% 29.98 in 10.0 mi NNE 9.2 mph - N/A   Overcast
9:54 AM 69.1 °F 64.9 °F 87% 29.98 in 10.0 mi NNE 9.2 mph - N/A   Overcast
10:01 AM 69.8 °F 64.4 °F 83% 29.99 in 10.0 mi NNE 10.4 mph - N/A   Overcast
10:54 AM 68.0 °F 63.0 °F 84% 30.01 in 10.0 mi NNE 16.1 mph 23.0 mph N/A   Overcast
11:08 AM 68.0 °F 60.8 °F 78% 30.02 in 10.0 mi NE 15.0 mph 20.7 mph N/A   Overcast
11:54 AM 68.0 °F 57.9 °F 70% 30.03 in 10.0 mi NE 12.7 mph 19.6 mph N/A   Overcast
12:17 PM 68.0 °F 59.0 °F 73% 30.03 in 10.0 mi ENE 8.1 mph 17.3 mph N/A   Overcast
12:54 PM 69.1 °F 60.1 °F 73% 30.04 in 10.0 mi NNE 12.7 mph 20.7 mph N/A   Overcast
1:54 PM 69.1 °F 59.0 °F 70% 30.04 in 10.0 mi North 12.7 mph - N/A   Overcast
2:54 PM 70.0 °F 60.1 °F 71% 30.04 in 10.0 mi NNE 12.7 mph - N/A   Overcast
3:54 PM 70.0 °F 59.0 °F 68% 30.04 in 10.0 mi NNE 10.4 mph - N/A   Overcast
4:54 PM 71.1 °F 60.1 °F 68% 30.05 in 10.0 mi NE 5.8 mph - N/A   Overcast
5:54 PM 70.0 °F 57.9 °F 65% 30.06 in 10.0 mi ENE 11.5 mph 17.3 mph N/A   Overcast
6:54 PM 66.9 °F 55.0 °F 66% 30.07 in 10.0 mi NE 8.1 mph - N/A   Overcast
7:32 PM 66.2 °F 55.4 °F 68% 30.07 in 10.0 mi NE 9.2 mph - N/A   Overcast
7:54 PM 66.0 °F 55.9 °F 70% 30.08 in 10.0 mi NE 6.9 mph - N/A   Overcast
9:43 PM 66.2 °F 57.2 °F 73% 30.10 in 10.0 mi NE 5.8 mph - N/A   Overcast
9:54 PM 66.0 °F 57.9 °F 75% 30.11 in 10.0 mi NE 6.9 mph - N/A   Overcast
10:54 PM 66.0 °F 57.0 °F 73% 30.11 in 10.0 mi NNE 6.9 mph - N/A   Overcast
11:54 PM 64.9 °F 57.0 °F 75% 30.11 in 10.0 mi NE 8.1 mph - N/A   Overcast